{"data":{"norad_id":61788,"intl_designator":"2024-199BF","name":"SITRO-AIS 45","alt_names":[],"object_type":"PAYLOAD","status":"ACTIVE","operator":null,"country":"CIS","launch_date":"2024-11-04","launch_site_code":"VOSTO","launch_vehicle":null,"mission":null,"orbit_class":"UNKNOWN","rcs_meters":null,"size_class":null,"mass_kg":null,"dimensions":null,"purposes":[],"wikipedia_slug":null,"has_3d_model":false,"image_url":null,"decayed_at":null,"tle_current":{"epoch":"2026-05-25T03:54:47.615040Z","epoch_age_seconds":71527,"freshness":"FRESH","line1":"1 61788U 24199BF  26145.16305110  .00043857  00000+0  63123-3 0  9994","line2":"2 61788  97.2934  20.4672 0007395  31.2381 328.9312 15.55900090130825","mean_motion":15.5590009,"eccentricity":0.0007395,"inclination_deg":97.2934,"raan_deg":20.4672,"arg_perigee_deg":31.2381,"mean_anomaly_deg":328.9312,"bstar":0.00063123,"rev_number":13082,"period_min":92.550929796527,"perigee_km":394.5253500089,"apogee_km":404.54953050604,"semimajor_km":6777.6744402575,"source":"CELESTRAK","updated_at":"2026-05-25T13:38:02.563904Z"}}}